TimeEDT,TemperatureF,Dew PointF,Humidity,Sea Level PressureIn,VisibilityMPH,Wind Direction,Wind SpeedMPH,Gust SpeedMPH,PrecipitationIn,Events,Conditions,WindDirDegrees,DateUTC
12:15 AM,71.6,69.8,94,29.73,10.0,SSW,5.8,-,N/A,,Clear,200,2013-06-30 04:15:00
12:35 AM,71.6,69.8,94,29.73,10.0,SSW,5.8,-,N/A,,Clear,200,2013-06-30 04:35:00
12:55 AM,71.6,69.8,94,29.74,10.0,Calm,Calm,-,N/A,,Clear,0,2013-06-30 04:55:00
1:15 AM,71.6,69.8,94,29.74,10.0,SSW,3.5,-,N/A,,Clear,210,2013-06-30 05:15:00
1:35 AM,71.6,69.8,94,29.74,10.0,SSW,4.6,-,N/A,,Clear,210,2013-06-30 05:35:00
1:55 AM,69.8,68.0,94,29.75,10.0,South,4.6,-,N/A,,Clear,180,2013-06-30 05:55:00
2:15 AM,69.8,68.0,94,29.75,10.0,SSW,4.6,-,N/A,,Clear,200,2013-06-30 06:15:00
2:35 AM,69.8,69.8,100,29.75,10.0,SSW,4.6,-,N/A,,Clear,210,2013-06-30 06:35:00
2:55 AM,71.6,69.8,94,29.75,10.0,SSW,4.6,-,N/A,,Clear,200,2013-06-30 06:55:00
3:15 AM,69.8,69.8,100,29.75,10.0,SSW,4.6,-,N/A,,Clear,200,2013-06-30 07:15:00
3:35 AM,69.8,69.8,100,29.74,10.0,South,4.6,-,N/A,,Clear,190,2013-06-30 07:35:00
3:55 AM,69.8,68.0,94,29.74,10.0,SSW,4.6,-,N/A,,Clear,200,2013-06-30 07:55:00
4:15 AM,69.8,68.0,94,29.74,10.0,South,4.6,-,N/A,,Clear,190,2013-06-30 08:15:00
4:35 AM,69.8,68.0,94,29.75,10.0,Calm,Calm,-,N/A,,Clear,0,2013-06-30 08:35:00
4:55 AM,69.8,68.0,94,29.76,10.0,SSW,3.5,-,N/A,,Clear,210,2013-06-30 08:55:00
5:15 AM,69.8,69.8,100,29.76,10.0,SW,3.5,-,N/A,,Clear,220,2013-06-30 09:15:00
5:35 AM,69.8,68.0,94,29.77,9.0,Calm,Calm,-,N/A,,Clear,0,2013-06-30 09:35:00
5:55 AM,69.8,68.0,94,29.78,7.0,Calm,Calm,-,N/A,,Clear,0,2013-06-30 09:55:00
6:15 AM,69.8,69.8,100,29.78,8.0,SSW,3.5,-,N/A,,Clear,210,2013-06-30 10:15:00
6:35 AM,71.6,69.8,94,29.79,8.0,SW,3.5,-,N/A,,Clear,220,2013-06-30 10:35:00
6:55 AM,71.6,69.8,94,29.80,7.0,SW,3.5,-,N/A,,Clear,230,2013-06-30 10:55:00
7:15 AM,71.6,71.6,100,29.81,7.0,SSW,5.8,-,N/A,,Mostly Cloudy,210,2013-06-30 11:15:00
7:35 AM,71.6,71.6,100,29.82,3.0,SW,5.8,-,N/A,,Overcast,220,2013-06-30 11:35:00
7:55 AM,73.4,71.6,94,29.82,5.0,SSW,5.8,-,N/A,,Overcast,210,2013-06-30 11:55:00
8:15 AM,73.4,71.6,94,29.83,6.0,SSW,3.5,-,N/A,,Overcast,210,2013-06-30 12:15:00
8:35 AM,75.2,73.4,94,29.83,8.0,Calm,Calm,-,N/A,,Mostly Cloudy,0,2013-06-30 12:35:00
8:55 AM,77.0,73.4,89,29.83,10.0,SW,3.5,-,N/A,,Scattered Clouds,230,2013-06-30 12:55:00
9:15 AM,78.8,73.4,83,29.83,10.0,West,5.8,-,N/A,,Partly Cloudy,260,2013-06-30 13:15:00
9:35 AM,78.8,73.4,83,29.83,10.0,Calm,Calm,-,N/A,,Partly Cloudy,0,2013-06-30 13:35:00
9:55 AM,80.6,75.2,84,29.82,10.0,SSE,4.6,-,N/A,,Scattered Clouds,160,2013-06-30 13:55:00
10:15 AM,80.6,73.4,79,29.82,10.0,Calm,Calm,-,N/A,,Scattered Clouds,0,2013-06-30 14:15:00
10:35 AM,80.6,73.4,79,29.83,10.0,WSW,3.5,-,N/A,,Scattered Clouds,240,2013-06-30 14:35:00
10:55 AM,80.6,73.4,79,29.83,10.0,SSW,3.5,-,N/A,,Partly Cloudy,210,2013-06-30 14:55:00
11:15 AM,82.4,73.4,74,29.83,10.0,SSE,6.9,-,N/A,,Scattered Clouds,150,2013-06-30 15:15:00
11:35 AM,82.4,75.2,79,29.83,10.0,ESE,9.2,-,N/A,,Mostly Cloudy,110,2013-06-30 15:35:00
11:55 AM,82.4,73.4,74,29.84,10.0,SE,6.9,-,N/A,,Mostly Cloudy,130,2013-06-30 15:55:00
12:15 PM,80.6,73.4,79,29.83,10.0,SSE,6.9,-,N/A,,Partly Cloudy,150,2013-06-30 16:15:00
12:35 PM,80.6,73.4,79,29.84,10.0,SE,5.8,-,N/A,,Clear,140,2013-06-30 16:35:00
12:55 PM,80.6,73.4,79,29.83,10.0,SSE,6.9,-,N/A,,Partly Cloudy,160,2013-06-30 16:55:00
1:15 PM,80.6,73.4,79,29.83,10.0,South,6.9,-,N/A,,Clear,170,2013-06-30 17:15:00
1:35 PM,80.6,73.4,79,29.84,10.0,SSE,8.1,-,N/A,,Clear,160,2013-06-30 17:35:00
1:55 PM,78.8,73.4,83,29.84,10.0,SSE,9.2,-,N/A,,Clear,150,2013-06-30 17:55:00
2:15 PM,78.8,73.4,83,29.84,10.0,SSE,9.2,-,N/A,,Clear,160,2013-06-30 18:15:00
2:35 PM,78.8,73.4,83,29.84,10.0,South,8.1,-,N/A,,Clear,170,2013-06-30 18:35:00
2:55 PM,77.0,73.4,89,29.85,10.0,SSE,8.1,-,N/A,,Clear,150,2013-06-30 18:55:00
3:15 PM,77.0,73.4,89,29.85,9.0,SSE,9.2,-,N/A,,Scattered Clouds,150,2013-06-30 19:15:00
3:35 PM,75.2,73.4,94,29.86,7.0,SSE,8.1,-,N/A,,Mostly Cloudy,150,2013-06-30 19:35:00
3:55 PM,75.2,71.6,89,29.86,8.0,SSE,8.1,-,N/A,,Overcast,160,2013-06-30 19:55:00
4:15 PM,75.2,73.4,94,29.85,10.0,SSE,6.9,-,N/A,,Mostly Cloudy,160,2013-06-30 20:15:00
4:35 PM,75.2,71.6,89,29.85,10.0,South,9.2,-,0.01,,Mostly Cloudy,190,2013-06-30 20:35:00
4:55 PM,75.2,73.4,94,29.84,10.0,South,6.9,-,0.02,,Mostly Cloudy,190,2013-06-30 20:55:00
5:15 PM,73.4,73.4,100,29.84,10.0,South,6.9,-,N/A,,Mostly Cloudy,170,2013-06-30 21:15:00
5:35 PM,75.2,73.4,94,29.83,10.0,SSE,5.8,-,N/A,,Overcast,160,2013-06-30 21:35:00
5:55 PM,75.2,73.4,94,29.83,10.0,South,8.1,-,N/A,,Overcast,180,2013-06-30 21:55:00
6:15 PM,75.2,73.4,94,29.84,10.0,South,8.1,-,N/A,,Overcast,190,2013-06-30 22:15:00
6:35 PM,75.2,73.4,94,29.85,10.0,SSE,5.8,-,N/A,,Mostly Cloudy,160,2013-06-30 22:35:00
6:55 PM,73.4,71.6,94,29.86,10.0,South,4.6,-,N/A,,Mostly Cloudy,170,2013-06-30 22:55:00
7:15 PM,75.2,73.4,94,29.87,10.0,SSE,4.6,-,N/A,,Scattered Clouds,160,2013-06-30 23:15:00
7:35 PM,75.2,73.4,94,29.87,10.0,SSE,8.1,-,N/A,,Mostly Cloudy,150,2013-06-30 23:35:00
7:55 PM,73.4,71.6,94,29.87,10.0,SE,9.2,-,N/A,,Mostly Cloudy,140,2013-06-30 23:55:00
8:15 PM,73.4,71.6,94,29.88,10.0,South,5.8,-,N/A,,Mostly Cloudy,170,2013-07-01 00:15:00
8:35 PM,73.4,71.6,94,29.89,10.0,South,4.6,-,N/A,,Mostly Cloudy,170,2013-07-01 00:35:00
8:55 PM,73.4,71.6,94,29.90,10.0,SSW,6.9,-,N/A,,Overcast,210,2013-07-01 00:55:00
9:15 PM,73.4,71.6,94,29.90,10.0,SSW,4.6,-,N/A,,Overcast,200,2013-07-01 01:15:00
9:35 PM,73.4,71.6,94,29.91,10.0,South,5.8,-,N/A,,Overcast,190,2013-07-01 01:35:00
9:55 PM,73.4,71.6,94,29.91,10.0,South,9.2,-,N/A,,Overcast,180,2013-07-01 01:55:00
10:15 PM,73.4,71.6,94,29.91,10.0,South,4.6,-,N/A,,Overcast,190,2013-07-01 02:15:00
10:35 PM,73.4,71.6,94,29.92,10.0,SSW,9.2,-,N/A,,Overcast,210,2013-07-01 02:35:00
10:55 PM,73.4,71.6,94,29.92,10.0,SSW,11.5,-,N/A,,Overcast,200,2013-07-01 02:55:00
11:15 PM,73.4,71.6,94,29.92,10.0,South,6.9,16.1,N/A,,Overcast,190,2013-07-01 03:15:00
11:35 PM,73.4,71.6,94,29.92,10.0,SSW,5.8,-,N/A,,Overcast,200,2013-07-01 03:35:00
11:55 PM,73.4,71.6,94,29.92,10.0,SSW,5.8,-,N/A,,Overcast,200,2013-07-01 03:55:00